TimeCDT,TemperatureF,Dew PointF,Humidity,Sea Level PressureIn,VisibilityMPH,Wind Direction,Wind SpeedMPH,Gust SpeedMPH,PrecipitationIn,Events,Conditions,WindDirDegrees,DateUTC
12:53 AM,75.0,61.0,62,30.01,10.0,NNE,4.6,-,N/A,,Clear,30,2013-08-19 05:53:00
1:53 AM,73.9,63.0,68,30.01,10.0,NNE,4.6,-,N/A,,Clear,30,2013-08-19 06:53:00
2:53 AM,73.9,63.0,68,30.01,10.0,NE,4.6,-,N/A,,Clear,50,2013-08-19 07:53:00
3:53 AM,73.9,63.0,68,30.01,10.0,East,5.8,-,N/A,,Clear,80,2013-08-19 08:53:00
4:53 AM,72.0,64.0,76,30.01,10.0,NE,3.5,-,N/A,,Clear,50,2013-08-19 09:53:00
5:53 AM,72.0,64.9,78,30.01,10.0,East,3.5,-,N/A,,Clear,80,2013-08-19 10:53:00
6:53 AM,72.0,66.0,81,30.03,10.0,East,5.8,-,N/A,,Clear,90,2013-08-19 11:53:00
7:53 AM,73.9,66.0,76,30.05,10.0,East,4.6,-,N/A,,Clear,90,2013-08-19 12:53:00
8:53 AM,79.0,66.0,64,30.07,10.0,ESE,9.2,-,N/A,,Clear,110,2013-08-19 13:53:00
9:53 AM,82.9,64.9,54,30.07,10.0,SE,9.2,-,N/A,,Clear,130,2013-08-19 14:53:00
10:53 AM,87.1,64.0,46,30.06,10.0,South,10.4,-,N/A,,Clear,170,2013-08-19 15:53:00
11:53 AM,90.0,62.1,39,30.05,10.0,South,9.2,16.1,N/A,,Clear,170,2013-08-19 16:53:00
12:53 PM,91.9,59.0,33,30.03,10.0,SSE,11.5,16.1,N/A,,Mostly Cloudy,150,2013-08-19 17:53:00
1:53 PM,91.9,57.9,32,30.01,10.0,ESE,6.9,17.3,N/A,,Mostly Cloudy,120,2013-08-19 18:53:00
2:53 PM,93.9,54.0,26,29.99,10.0,Variable,4.6,-,N/A,,Clear,0,2013-08-19 19:53:00
3:53 PM,93.0,55.0,28,29.96,10.0,Calm,Calm,-,N/A,,Scattered Clouds,0,2013-08-19 20:53:00
4:53 PM,96.1,54.0,24,29.94,10.0,SSE,6.9,-,N/A,,Clear,150,2013-08-19 21:53:00
5:53 PM,95.0,54.0,25,29.93,10.0,SSE,8.1,-,N/A,,Mostly Cloudy,160,2013-08-19 22:53:00
6:53 PM,93.9,53.1,25,29.92,10.0,SSE,5.8,-,N/A,,Clear,150,2013-08-19 23:53:00
7:53 PM,89.1,54.0,30,29.93,10.0,ENE,3.5,-,N/A,,Clear,70,2013-08-20 00:53:00
8:53 PM,84.0,55.9,38,29.94,10.0,ENE,3.5,-,N/A,,Clear,60,2013-08-20 01:53:00
9:53 PM,82.9,55.9,39,29.96,10.0,East,4.6,-,N/A,,Clear,90,2013-08-20 02:53:00
10:53 PM,80.1,57.0,45,29.96,10.0,Calm,Calm,-,N/A,,Clear,0,2013-08-20 03:53:00
11:53 PM,77.0,57.9,52,29.96,10.0,NNE,4.6,-,N/A,,Clear,30,2013-08-20 04:53:00